CW6014 Weather Reports


time (UTC)temp
F
wind
direction
speed
knots
gust
knots
rain 1hr
in
rain 24hr
in
rain mn
in
humidity
%
barometer
mb
20211017152839 57 360 0.0 0.0 0.01 0.67 0.62 97 1001.3
20211017151842 58 360 0.0 0.0 0.02 0.67 0.62 98 1001.2
20211017150828 58 360 0.0 0.0 0.04 0.67 0.62 97 1001.3
20211017145824 59 360 0.0 0.0 0.04 0.68 0.62 98 1001.3
20211017144827 59 360 0.0 0.0 0.04 0.68 0.62 98 1001.4
20211017143829 59 360 0.0 0.0 0.03 0.67 0.61 98 1001.5
20211017142836 59 360 0.0 0.0 0.03 0.67 0.61 98 1001.4
20211017141839 59 360 0.0 0.0 0.02 0.66 0.60 98 1001.3
20211017140841 59 360 0.0 0.0 0.00 0.64 0.58 98 1001.2
20211017135838 59 360 0.0 0.0 0.00 0.70 0.58 98 1001.1
20211017134824 59 360 0.0 0.0 0.00 0.70 0.58 98 1001.0
20211017133827 59 360 0.0 0.0 0.01 0.70 0.58 97 1001.1
20211017132829 59 360 0.0 0.0 0.02 0.70 0.58 97 1001.0
20211017131833 59 360 0.0 0.0 0.02 0.70 0.58 98 1000.9
20211017130838 59 360 0.0 0.0 0.02 0.70 0.58 98 1000.7
20211017125835 59 360 0.0 0.0 0.02 0.91 0.58 98 1001.3
20211017124837 58 360 0.0 0.0 0.02 0.91 0.58 98 1001.3
20211017123840 59 360 0.0 0.0 0.01 0.90 0.57 98 1001.6
20211017122827 59 360 0.0 0.0 0.00 0.89 0.56 98 1001.0
20211017121830 59 360 0.0 0.0 0.00 0.89 0.56 98 1000.4
20211017120832 59 360 0.0 0.0 0.00 0.89 0.56 98 1000.3
20211017115828 59 360 0.0 0.0 0.00 0.93 0.56 98 1000.9
20211017114831 59 360 0.0 0.0 0.00 0.93 0.56 98 1000.9
20211017113837 59 360 0.0 0.0 0.00 0.93 0.56 98 1001.0
20211017112840 59 360 0.0 0.0 0.00 0.93 0.56 98 1001.3
20211017111843 59 360 0.0 0.0 0.00 0.93 0.56 97 1001.1
20211017110824 59 360 0.0 0.0 0.00 0.93 0.56 97 1000.6
20211017105825 59 360 0.0 0.0 0.04 0.94 0.56 97 1000.4
20211017104828 58 360 0.0 0.0 0.11 0.94 0.56 97 1000.4
20211017103831 58 360 0.0 0.0 0.18 0.94 0.56 97 1000.5
20211017102833 58 360 0.0 0.0 0.23 0.94 0.56 97 1000.7
20211017101840 58 360 0.0 0.0 0.25 0.94 0.56 97 1001.4
20211017100842 58 360 0.0 0.0 0.29 0.94 0.56 97 1000.9
20211017095839 59 360 0.0 0.0 0.26 0.90 0.51 97 1000.7
20211017094841 59 360 0.0 0.0 0.22 0.84 0.45 97 1001.6
20211017093828 60 360 0.0 0.0 0.16 0.77 0.38 98 1000.8
20211017092830 61 360 0.0 0.0 0.11 0.71 0.32 98 1000.4
20211017091833 61 360 0.0 0.0 0.10 0.69 0.30 97 1000.3
20211017090834 61 360 0.0 0.0 0.07 0.66 0.27 97 1000.4
20211017085835 61 360 0.0 0.0 0.06 0.64 0.25 97 1000.6
20211017084837 62 360 0.0 0.0 0.05 0.62 0.23 97 1000.7
20211017083839 61 360 0.0 0.0 0.07 0.61 0.22 97 1000.6
20211017082842 62 360 0.0 0.0 0.07 0.60 0.21 97 1001.0
20211017081828 62 360 0.0 0.0 0.13 0.59 0.20 97 1001.1
20211017080832 62 360 0.0 0.0 0.16 0.59 0.20 97 1001.2
20211017075828 62 360 0.0 0.0 0.16 0.58 0.19 97 1001.2
20211017074831 62 360 0.0 0.0 0.18 0.57 0.18 97 1001.1
20211017073833 62 360 0.0 0.0 0.15 0.54 0.15 97 1000.9
20211017072840 62 360 0.0 0.0 0.13 0.52 0.13 97 1001.0
20211017071843 62 360 0.0 0.0 0.07 0.46 0.07 97 1001.0
20211017070824 62 360 0.0 0.0 0.03 0.42 0.03 96 1001.3
20211017065841 62 360 0.0 0.0 0.03 0.42 0.03 96 1001.2
20211017064828 63 360 0.0 0.0 0.00 0.39 0.00 94 1001.4
20211017063831 63 360 0.0 0.0 0.00 0.39 0.00 94 1001.5
20211017062833 63 360 0.0 0.0 0.00 0.39 0.00 94 1001.8
20211017061836 63 360 0.0 0.0 0.00 0.39 0.00 94 1002.1
20211017060842 63 360 0.0 0.0 0.00 0.39 0.00 94 1002.2
20211017055838 63 360 0.0 0.0 0.00 0.39 0.00 94 1002.5
20211017054841 63 360 0.0 0.0 0.00 0.39 0.00 94 1002.7
20211017053824 63 360 0.0 0.0 0.00 0.39 0.00 94 1003.1
20211017052831 63 360 0.0 0.0 0.00 0.39 0.00 94 1003.3
20211017051833 63 360 0.0 0.0 0.00 0.39 0.00 94 1003.3
20211017050835 63 360 0.0 0.0 0.00 0.39 0.00 94 1003.6
20211017045832 63 360 0.0 0.0 0.00 0.39 0.39 94 1003.6
20211017044839 63 360 0.0 0.0 0.00 0.39 0.39 95 1003.7
20211017043841 63 360 0.0 0.0 0.00 0.39 0.39 95 1003.8
20211017042824 63 360 0.0 0.0 0.00 0.39 0.39 95 1004.2
20211017041827 62 360 0.0 0.0 0.00 0.39 0.39 95 1004.2
20211017040832 62 360 0.0 0.0 0.00 0.39 0.39 95 1004.5
20211017035829 62 360 0.0 0.0 0.00 0.39 0.39 95 1004.6
20211017034832 63 360 0.0 0.0 0.00 0.39 0.39 95 1004.8
20211017033834 62 360 0.0 0.0 0.00 0.39 0.39 95 1004.8
20211017032836 63 360 0.0 0.0 0.00 0.39 0.39 95 1005.0
20211017031843 62 360 0.0 0.0 0.00 0.39 0.39 95 1005.2
20211017030824 63 360 0.0 0.0 0.00 0.39 0.39 95 1005.4
20211017025841 63 360 0.0 0.0 0.00 0.39 0.39 94 1005.5
20211017024824 63 360 0.0 0.0 0.00 0.39 0.39 95 1005.6
20211017023831 63 360 0.0 0.0 0.00 0.39 0.39 95 1005.8
20211017022833 63 360 0.0 0.0 0.00 0.39 0.39 95 1005.9
20211017021836 63 360 0.0 0.0 0.00 0.39 0.39 94 1006.2
20211017020839 63 360 0.0 0.0 0.00 0.39 0.39 95 1006.2
20211017015839 63 360 0.0 0.0 0.00 0.39 0.39 95 1006.3
20211017014841 63 360 0.0 0.0 0.00 0.39 0.39 94 1006.3
20211017013824 63 360 0.0 0.0 0.00 0.39 0.39 94 1006.3
20211017012827 62 360 0.0 0.0 0.00 0.39 0.39 95 1006.5
20211017011833 62 360 0.0 0.0 0.00 0.39 0.39 95 1006.6
20211017010835 62 360 0.0 0.0 0.00 0.39 0.39 95 1006.6
20211017005831 62 360 0.0 0.0 0.00 0.39 0.39 95 1006.6
20211017004835 62 360 0.0 0.0 0.00 0.39 0.39 95 1006.6
20211017003841 62 360 0.0 0.0 0.00 0.39 0.39 95 1006.6
20211017002823 62 360 0.0 0.0 0.00 0.39 0.39 95 1006.7
20211017001826 61 360 0.0 0.0 0.00 0.39 0.39 95 1006.7
20211017000829 62 360 0.0 0.0 0.00 0.39 0.39 95 1006.8
20211016235829 62 360 0.0 0.0 0.00 0.39 0.39 95 1006.8
20211016234832 62 360 0.0 0.0 0.00 0.39 0.39 95 1006.8
20211016233835 62 360 0.0 0.0 0.00 0.39 0.39 95 1006.9
20211016232837 62 360 0.0 0.0 0.00 0.39 0.39 96 1007.1
20211016231823 62 360 0.0 0.0 0.00 0.39 0.39 96 1007.1
20211016230825 62 360 0.0 0.0 0.00 0.39 0.39 96 1007.1
20211016225842 62 360 0.0 0.0 0.00 0.39 0.39 96 1007.2
20211016224825 62 360 0.0 0.0 0.00 0.39 0.39 96 1007.2
20211016223827 61 360 0.0 0.0 0.00 0.39 0.39 96 1007.2
20211016222833 61 360 0.0 0.0 0.00 0.39 0.39 96 1007.3
20211016221836 61 360 0.0 0.0 0.00 0.39 0.39 96 1007.3
20211016220838 61 360 0.0 0.0 0.00 0.39 0.39 96 1007.2
20211016215834 61 360 0.0 0.0 0.00 0.39 0.39 96 1007.3
20211016214841 61 360 0.0 0.0 0.00 0.39 0.39 96 1007.3
20211016213824 62 360 0.0 0.0 0.00 0.39 0.39 96 1007.3
20211016212825 62 360 0.0 0.0 0.00 0.39 0.39 95 1007.3
20211016211829 62 360 0.0 0.0 0.00 0.39 0.39 96 1007.3
20211016210835 62 360 0.0 0.0 0.00 0.39 0.39 95 1007.3
20211016205831 62 360 0.0 0.0 0.00 0.39 0.39 96 1007.5
20211016204834 62 360 0.0 0.0 0.00 0.39 0.39 95 1007.7
20211016203837 62 360 0.0 0.0 0.00 0.39 0.39 96 1007.8
20211016202824 62 360 0.0 0.0 0.00 0.39 0.39 95 1007.7
20211016201826 62 360 0.0 0.0 0.00 0.39 0.39 96 1007.8
20211016200828 62 360 0.0 0.0 0.00 0.39 0.39 96 1008.0
20211016195824 61 360 0.0 0.0 0.00 0.39 0.39 96 1008.0
20211016194830 61 360 0.0 0.0 0.00 0.39 0.39 96 1008.1
20211016193833 61 360 0.0 0.0 0.00 0.39 0.39 96 1008.2
20211016192835 61 360 0.0 0.0 0.00 0.39 0.39 96 1008.2
20211016191838 61 360 0.0 0.0 0.00 0.39 0.39 96 1008.3
20211016190839 61 360 0.0 0.0 0.00 0.39 0.39 96 1008.3
20211016185839 61 360 0.0 0.0 0.00 0.39 0.39 97 1008.3
20211016184842 62 360 0.0 0.0 0.00 0.39 0.39 96 1008.3
20211016183824 61 360 0.0 0.0 0.00 0.39 0.39 97 1008.3
20211016182826 61 360 0.0 0.0 0.00 0.39 0.39 97 1008.3
20211016181832 61 360 0.0 0.0 0.00 0.39 0.39 97 1008.4
20211016180834 61 360 0.0 0.0 0.00 0.39 0.39 97 1008.5
20211016175831 61 360 0.0 0.0 0.00 0.39 0.39 97 1008.5
20211016174833 61 360 0.0 0.0 0.00 0.39 0.39 97 1008.5
20211016173840 61 360 0.0 0.0 0.00 0.39 0.39 97 1008.5
20211016172843 61 360 0.0 0.0 0.00 0.39 0.39 97 1008.7
20211016171825 61 360 0.0 0.0 0.00 0.39 0.39 97 1008.8
20211016170827 61 360 0.0 0.0 0.00 0.39 0.39 97 1009.0
20211016165826 61 360 0.0 0.0 0.00 0.39 0.39 97 1009.1
20211016164829 61 360 0.0 0.0 0.00 0.39 0.39 97 1009.1
20211016163832 61 360 0.0 0.0 0.00 0.39 0.39 97 1009.4
20211016162835 61 360 0.0 0.0 0.01 0.39 0.39 97 1009.5
20211016161842 60 360 0.0 0.0 0.02 0.39 0.39 98 1009.7
20211016160843 60 360 0.0 0.0 0.03 0.39 0.39 98 1010.0
20211016155840 60 360 0.0 0.0 0.05 0.39 0.39 97 1010.4
20211016154843 60 360 0.0 0.0 0.05 0.39 0.39 97 1010.4
20211016153828 60 360 0.0 0.0 0.05 0.39 0.39 97 1010.4